Portada
METAR-TAF:

METAR-TAF

Aeroports :

Alton-Saint Louis, Illinois, Estats Units d'Amèrica

latitud: 38-54N, longitud: 090-03W, altitud: 166 m

Observació

L'informe es va fer fa 54 minuts, a les 22:50 UTC
Vent 7 kt del Est
Temperatura 22°C
Humitat 38%
Pressió 1026 hPa
Visibilitat: 16.1 km
Cel clar

METAR: KALN 202250Z 09007KT 10SM SKC 22/07 A3029

Hora: 18:44 (23:44 UTC)


TAF: manca

Observacions i pronòstics meteorològics de més de 4000 aeroports (METAR i TAF).

Les estacions disponibles són els punts grocs i vermells al mapa.

Posi el ratolí al punt desitjat per veure el nom de l'estació.

Feu clic per veure les observacions i els pronòstics meteorològics.

Per canviar el mapa: feu clic els botons verds amb una creu de color negre per apropar; al botó verd amb un guió per allunyar la imatge; o en les fletxes verdes per a mapes adjacents.


METAR-TAF: